User: anonymous   Login
Location: Caltech
(34.1382°N, 118.1253°W)
Time: 22:16:39
(UTC-07:00)
Language:

Cosmos 2219 - Orbit

View from above orbital plane
View from above orbital plane
View from above satellite
View from above satellite

Ground track
Ground track

The orbit data is extracted from the following two-line orbital elements,

1 22219U 92076A   15181.73227096  .00000133  00000-0  95167-4 0  9991
2 22219 071.0615 256.3229 0017096 038.7761 321.4584 14.13564126166825
Epoch (UTC): 30 June 2015 17:34:28
Eccentricity: 0.0017096
inclination: 71.0615°
perigee height: 835 km
apogee height: 859 km
right ascension of ascending node: 256.3229°
argument of perigee: 38.7761°
revolutions per day: 14.13564126
mean anomaly at epoch: 321.4584°
orbit number at epoch: 16682

The dashed part of the orbit path shows where the satellite is in the earth's shadow,  

DLR